www.pogodaiklimat.ru
ПОГОДА в Бардуфоссе
Время
(UTC), дата
10 5.08
11 5.08
12 5.08
14 5.08
13 5.08
15 5.08
16 5.08
17 5.08
18 5.08
20 5.08
19 5.08
21 5.08
22 5.08
23 5.08
00 6.08
02 6.08
01 6.08
03 6.08
04 6.08
05 6.08
06 6.08
08 6.08
07 6.08
09 6.08
10 6.08
11 6.08
12 6.08
14 6.08
13 6.08
15 6.08
16 6.08
17 6.08
18 6.08
20 6.08
19 6.08
21 6.08
22 6.08
23 6.08
00 7.08
02 7.08
01 7.08
03 7.08
04 7.08
05 7.08
06 7.08
08 7.08
07 7.08
09 7.08
10 7.08
11 7.08
12 7.08
14 7.08
13 7.08
15 7.08
16 7.08
17 7.08
18 7.08
20 7.08
19 7.08
21 7.08
22 7.08
23 7.08
00 8.08
02 8.08
01 8.08
03 8.08
04 8.08
05 8.08
06 8.08
08 8.08
07 8.08
09 8.08
10 8.08
11 8.08
12 8.08
14 8.08
13 8.08
15 8.08
16 8.08
17 8.08
18 8.08
20 8.08
19 8.08
21 8.08
22 8.08
23 8.08
00 9.08
02 9.08
01 9.08
03 9.08
04 9.08
05 9.08
06 9.08
08 9.08
07 9.08
09 9.08
10 9.08
11 9.08
12 9.08
14 9.08
13 9.08
15 9.08
16 9.08
17 9.08
18 9.08
20 9.08
19 9.08
21 9.08
22 9.08
23 9.08
00 10.08
02 10.08
01 10.08
03 10.08
04 10.08
05 10.08
06 10.08
08 10.08
07 10.08
09 10.08
10 10.08
11 10.08
12 10.08
14 10.08
13 10.08
15 10.08
16 10.08
17 10.08
18 10.08
20 10.08
19 10.08
21 10.08
22 10.08
23 10.08
00 11.08
02 11.08
01 11.08
03 11.08
04 11.08
05 11.08
06 11.08
08 11.08
07 11.08
09 11.08
10 11.08
11 11.08
12 11.08
14 11.08
13 11.08
15 11.08
16 11.08
17 11.08
18 11.08
20 11.08
19 11.08
21 11.08
22 11.08
23 11.08
00 12.08
02 12.08
01 12.08
03 12.08
04 12.08
05 12.08
06 12.08
08 12.08
07 12.08
Ветер
(напр.,м/с)
Видим. Явления Облачность Т
(С)
Тd
(С)
f
(%)
Тe
(С)
Тes
(С)
Комфортность P
(гПа)
Po
(гПа)
Тmin
(С)
Tmax
(С)
R
(мм)
R24
(мм)
S
(см)
С 1
{3}
>70 км 9/1 600 м
[Cu med, cong Ac trans Cs]
+16.8 +8.5 58 +18 +22 1007.0 998.0
С 2
{4}
>70 км 9/4 600 м
[Cu med, cong Ac trans Cs]
+17.8 +8.7 55 +18 +21 1006.9 997.9
З 4
{5}
>70 км 9/4 600 м
[Cu med, cong Ac trans Cs]
+15.7 +10.1 69 +15 +17 1007.3 998.2
С 2
{3}
>70 км 9/5 600 м
[Cu med, cong Ac trans Cs]
+16.0 +10.6 70 +16 +18 1007.8 998.8
З 2
{4}
>70 км 9/5 600 м
[Cu med, cong Ac trans Cs]
+15.6 +10.4 71 +16 +18 1007.6 998.6
С 2
{3}
>70 км 9/4 1000 м
[Cu med, cong Ac trans]
+16.5 +10.0 65 +17 +18 1008.1 999.0
С 1
{4}
>70 км 9/4 600 м
[Cu med, cong Ac trans]
+16.7 +9.4 62 +18 +18 1008.3 999.2
ЮЗ 1
{3}
>70 км 8/4 600 м
[Cu med, cong Ac trans]
+17.2 +9.6 61 +18 +19 1008.3 999.3
С 1
{2}
>70 км 6/3 600 м
[Cu med, cong Ac trans]
+16.8 +9.6 62 +18 +18 1008.5 999.4 +11.7 +19.4
штиль 0
{1}
н/о н/о +11.1 +9.8 92 +10 +10 1009.2 1000.0
штиль 0
{2}
>70 км 4/1 1000 м
[Sc diur, vesp Ac trans Ci fib]
+14.5 +11.4 82 +14 +14 1008.8 999.7
штиль 0
{2}
>70 км 1/0 2000 м
[Ac trans Ci fib]
+9.2 +8.4 95 +8 +8 1009.5 1000.2
штиль 0 н/о н/о +7.5 +7.0 97 +6 +6 1010.2 1000.8
штиль 0 н/о н/о +6.7 +6.2 97 +6 +6 1010.5 1001.1
штиль 0 н/о н/о +5.6 +5.3 98 +4 +4 1011.0 1001.5
штиль 0 н/о н/о +4.8 +4.4 97 +4 +4 1011.7 1002.2
штиль 0 н/о н/о +5.1 +4.9 99 +4 +4 1011.4 1001.9
штиль 0 н/о н/о +5.7 +5.1 96 +5 +5 1011.8 1002.4
штиль 0 >70 км туман на расстоянии 1/1 100 м
[St]
+8.6 +7.3 92 +8 +9 1012.0 1002.6
штиль 0 >70 км туман на расстоянии 1/1 <50 м
[St Ci fib]
+11.5 +8.7 83 +11 +13 1012.1 1002.8
штиль 0
{1}
>70 км 3/0
[Ci fib]
+14.0 +9.3 73 +14 +17 1012.3 1003.1 +4.4
В 1
{2}
>70 км 3/0
[]
+18.2 +10.5 61 +20 +25 1012.7 1003.6
В 1
{2}
>70 км 3/0
[]
+16.3 +9.9 66 +17 +21 1012.5 1003.4
В 2 >70 км 1/0
[Ac trans Ci fib]
+19.9 +10.7 55 +22 +28 комфорт 1012.7 1003.7
В 3
{4}
>70 км 4/1 1000 м
[Cu hum Ac trans Ci]
+21.3 +9.7 47 +23 +28 комфорт 1012.8 1003.8
Ю 2
{6}
>70 км 6/1 1000 м
[Cu hum Ac trans Cs]
+22.3 +8.9 42 +24 +29 комфорт 1012.8 1003.9
ЮЗ 2
{5}
>70 км 8/3 1000 м
[Cu med, cong Ac trans Cs]
+22.8 +8.0 39 +24 +24 комфорт 1013.0 1004.1
З 4
{6}
>70 км 9/4 1000 м
[Cu hum Ac As Cs]
+21.6 +10.3 49 +23 +25 комфорт 1013.7 1004.8
Ю 3
{6}
>70 км 9/4 1000 м
[Cu med, cong Ac cast Cs]
+22.1 +8.4 41 +23 +25 комфорт 1013.2 1004.3
З 4
{5}
>70 км 9/4 1000 м
[Cu Sc Ac As Cs]
+19.5 +10.8 57 +21 +22 комфорт 1014.4 1005.4
З 2
{7}
70 км слаб. дождь 9/5 1000 м
[Sc Ac As]
+17.6 +11.5 67 +18 +19 1015.3 1006.3
ЮЗ 3
{7}
70 км слаб. дождь 9/5 1000 м
[Sc Ac As]
+16.6 +11.5 72 +16 +17 1015.8 1006.7 0.1
ЮВ 1
{6}
25 км слаб. дождь 9/8 600 м
[Sc Ac As]
+14.7 +12.7 88 +15 +15 1016.3 1007.1 +14.0 +23.7 0.8
штиль 0
{2}
70 км осадки на расстоянии 10/9 600 м
[Sc Ac As]
+14.0 +12.9 93 +14 +14 1017.1 1007.9
Ю 1
{3}
28 км в посл. час дождь 9/8 600 м
[Sc Ac As]
+14.3 +12.9 91 +15 +15 1016.7 1007.5 0.6
Ю 4
{6}
65 км осадки на расстоянии 10/9 300 м
[Sc Ac As]
+14.9 +12.3 84 +14 +14 1017.4 1008.2
ЮЗ 4
{8}
н/о н/о +15.2 +12.0 81 +14 +14 1017.8 1008.6
ЮЗ 5
{8}
н/о н/о +15.2 +11.8 80 +14 +14 1018.3 1009.2
СЗ 2
{7}
н/о н/о +14.6 +12.3 86 +14 +14 1019.1 1009.9
СЗ 2
{3}
н/о н/о +13.9 +12.1 89 +13 +13 1020.2 1010.9
ЮЗ 1
{3}
н/о н/о +14.2 +12.3 88 +15 +15 1019.7 1010.5
С 1
{4}
н/о н/о +14.0 +12.1 88 +14 +14 1020.8 1011.5
З 3
{5}
35 км слаб. ливневой дождь 10/9 200 м
[Cu Sc Ac As]
+13.0 +11.9 93 +12 +12 1021.3 1012.1
З 3
{6}
55 км в посл. час ливневой дождь 9/8 200 м
[Cu Sc Ac As]
+13.3 +11.7 90 +12 +12 1021.9 1012.6
С 2
{4}
55 км {ливн. дождь} 9/8 300 м
[Cu Sc Ac As]
+14.1 +11.2 83 +14 +14 1022.3 1013.1 +13.0 +15.5 0.6 1.5
СЗ 2
{7}
60 км 9/5 1000 м
[Cu Sc Ac trans Cc]
+15.9 +11.4 75 +16 +18 1022.6 1013.3
З 4
{6}
55 км 9/6 300 м
[Cu Sc Ac As Ci fib]
+14.9 +11.1 78 +14 +14 1022.4 1013.1
С 4
{5}
60 км 9/5 1000 м
[Cu Sc Ac trans Ci fib]
+15.9 +10.5 70 +15 +17 1022.7 1013.5
С 3
{6}
60 км 9/5 1000 м
[Cu Sc Ac lent Ci fib]
+16.7 +10.6 67 +16 +18 1022.9 1013.7
С 3
{5}
60 км 9/5 1000 м
[Cu Sc Ac trans Ci fib]
+16.9 +10.4 66 +17 +19 1022.9 1013.7
С 3
{5}
>70 км 9/5 1000 м
[Cu Sc Ac trans Ci fib]
+17.1 +10.8 66 +17 +19 1023.1 1014.0
С 3
{5}
>70 км 8/4 1000 м
[Cu hum Ac trans Cs]
+18.7 +11.1 61 +19 +21 1022.7 1013.6
СЗ 2
{5}
>70 км 9/4 1000 м
[Cu Sc Ac trans Cs]
+18.0 +10.2 60 +19 +21 1023.0 1013.8
С 3
{5}
>70 км 6/3 1000 м
[Cu hum Ac trans Cs]
+18.1 +10.5 61 +18 +20 1022.7 1013.6
С 3
{5}
>70 км 6/1 1000 м
[Cu hum Ac trans Cs]
+17.9 +10.3 61 +18 +19 1022.6 1013.4
С 2
{5}
>70 км 5/1 600 м
[Cu hum Cc]
+17.8 +10.6 63 +18 +19 1022.4 1013.2 0.1
СЗ 2
{4}
>70 км 4/1 1000 м
[Cu hum Ci fib]
+17.3 +10.2 63 +18 +18 1022.2 1013.0 +14.1 +18.9 0.1
З 1
{2}
>70 км 5/0
[Ac lent Cs]
+12.2 +11.0 92 +12 +12 1022.5 1013.2
С 2
{3}
>70 км 4/0
[Ac lent Cs]
+15.0 +10.3 73 +15 +15 1022.3 1013.1
З 1
{2}
>70 км 5/0
[Ac lent Cs]
+11.1 +10.4 95 +11 +11 1022.5 1013.1
штиль 0
{1}
н/о н/о +9.3 +8.6 95 +8 +8 1022.7 1013.2
штиль 0 н/о н/о +8.9 +8.6 98 +8 +8 1022.6 1013.1
штиль 0 н/о н/о +8.6 +8.2 97 +8 +8 1022.6 1013.1
штиль 0 н/о н/о +8.0 +7.7 98 +7 +7 1022.3 1012.9
штиль 0 н/о н/о +8.2 +7.9 98 +7 +7 1022.5 1013.1
З 1
{2}
н/о н/о +8.3 +8.0 98 +7 +7 1022.2 1012.8
штиль 0
{1}
н/о н/о +9.2 +8.8 97 +8 +8 1022.0 1012.6
штиль 0
{1}
70 км 9/1 <50 м
[St Ac As Cc]
+11.5 +10.3 92 +11 +12 1021.4 1012.1
СЗ 1
{2}
>70 км 8/0
[Ac As Cc]
+13.4 +10.8 84 +14 +16 1020.8 1011.5 +7.7 +17.4 0.1
ЮВ 1
{3}
>70 км 6/0
[Ac cast Cc]
+16.1 +11.4 74 +17 +21 1019.6 1010.4
ЮВ 1
{2}
>70 км 8/0
[Ac cast Cc]
+17.2 +10.8 66 +18 +22 1020.0 1010.9
В 2
{3}
>70 км 6/0
[Ac cast Cc]
+19.1 +12.6 66 +21 +26 комфорт 1018.7 1009.7
СЗ 1
{3}
>70 км 8/0
[Ac cast Cc]
+22.3 +11.6 51 +25 +32 комфорт 1017.8 1008.8
ЮВ 1
{2}
>70 км 8/1 1500 м
[Cu hum Ac cast Cc]
+24.0 +12.5 49 +26 +31 жарко 1016.9 1008.0
С 2
{3}
>70 км 6/1 1500 м
[Cu hum Ac cast Cc]
+24.3 +13.4 51 +27 +31 жарко 1016.0 1007.1
С 3
{5}
>70 км 8/1 1500 м
[Cu hum Ac und Cc]
+25.5 +13.7 48 +28 +30 жарко 1014.1 1005.3
С 3
{4}
>70 км 8/1 1500 м
[Cu hum Ac cast Cc]
+25.4 +13.6 48 +28 +30 жарко 1014.8 1006.0
С 3
{5}
н/о н/о +24.9 +13.1 48 +27 +27 жарко 1013.6 1004.7
С 2
{3}
н/о н/о +24.3 +13.6 51 +27 +27 жарко 1013.0 1004.1 0.2
Ю 1
{3}
н/о н/о +20.9 +17.3 80 +26 +26 душно 1012.4 1003.4
ЮЗ 1
{2}
н/о н/о +20.0 +16.1 78 +24 +24 комфорт 1011.9 1002.9 +13.5 +25.6 0.2
штиль 0
{2}
н/о н/о +17.8 +16.4 92 +18 +18 1010.9 1001.9
штиль 0
{2}
н/о н/о +18.9 +16.5 86 +20 +20 1011.3 1002.3
З 3
{6}
н/о н/о +19.4 +14.7 74 +21 +21 комфорт 1011.7 1002.7
З 3
{6}
н/о н/о +17.7 +15.4 86 +18 +18 1012.9 1003.9
ЮЗ 2
{8}
н/о н/о +15.4 +13.8 90 +15 +15 1014.8 1005.7 6
ЮЗ 2
{3}
н/о н/о +15.1 +13.6 91 +15 +15 1014.8 1005.7 3
З 3
{7}
н/о н/о +14.4 +13.6 95 +13 +13 1015.9 1006.7 2
З 2
{5}
н/о н/о +14.5 +13.6 94 +14 +14 1015.2 1006.0 0.7
З 8
{14}
н/о н/о +12.4 +10.5 88 +9 +9 1017.0 1007.7 3
З 6
{13}
н/о н/о +11.7 +10.0 89 +9 +9 1018.7 1009.4 0.5
З 4
{9}
н/о н/о +12.2 +9.3 82 +10 +10 1019.5 1010.2
З 3
{9}
н/о н/о +13.7 +7.5 66 +13 +13 1019.5 1010.2 +11.7 +20.1 15 14.7
З 1
{5}
60 км осадки на расстоянии 9/9 600 м
[Cu Sc Ac As]
+13.4 +7.9 69 +14 +14 1020.0 1010.7
З 3
{5}
60 км осадки на расстоянии 9/9 600 м
[Cu Sc Ac As]
+13.8 +8.0 68 +13 +13 1019.6 1010.4
СЗ 1
{2}
65 км осадки на расстоянии 9/8 600 м
[Cu Sc Ac As]
+14.6 +8.6 67 +15 +16 1020.1 1010.8
З 4
{7}
65 км осадки на расстоянии 9/8 600 м
[Cu Sc Ac As]
+15.1 +8.2 63 +14 +15 1020.2 1011.0
СЗ 3
{6}
60 км осадки на расстоянии 9/8 600 м
[Cu Sc Ac As]
+15.1 +8.8 66 +14 +15 1020.5 1011.3
З 4
{8}
55 км осадки на расстоянии 9/9 600 м
[Cu Sc Ac cuf]
+15.2 +7.4 60 +14 +15 1020.6 1011.4
З 6
{10}
65 км осадки на расстоянии 9/8 600 м
[Cu Sc Ac cuf]
+15.2 +8.2 63 +14 +14 1021.3 1012.0
З 6
{9}
65 км осадки на расстоянии 9/9 600 м
[Cu Sc Ac cuf]
+15.6 +6.8 56 +14 +14 1020.7 1011.5
З 5
{9}
65 км 9/8 600 м
[Cu Sc Ac cuf]
+14.7 +7.4 62 +13 +13 1021.4 1012.2
З 3
{10}
30 км слаб. ливневой дождь 9/8 600 м
[Cu Sc Ac cuf]
+12.3 +10.8 91 +11 +11 1022.3 1013.0 0.5
З 1
{4}
55 км осадки на расстоянии 9/8 600 м
[Cu Sc Ac As]
+13.3 +10.0 80 +13 +14 1022.6 1013.3
З 6
{7}
25 км слаб. ливневой дождь 9/8 600 м
[Cu Sc Ac As]
+12.2 +9.4 83 +9 +9 1023.0 1013.7 +12.1 +16.0 0.5
З 4
{7}
10 км слаб. ливневой дождь 9/9 600 м
[Cu Sc Ac As]
+11.0 +9.7 92 +8 +8 1024.0 1014.6 0.2
З 5
{8}
10 км слаб. ливневой дождь 9/9 600 м
[Cu Sc Ac As]
+11.1 +9.5 90 +8 +8 1023.4 1014.0 0.1
З 4
{9}
50 км осадки на расстоянии {ливн. дождь} 9/8 300 м
[Cu Sc Ac As]
+10.4 +8.6 89 +8 +8 1024.6 1015.2 0.7
ЮЗ 1
{5}
65 км 9/8 600 м
[Cu Sc Ac As]
+10.0 +7.7 86 +10 +10 1025.3 1015.8
СЗ 2
{3}
н/о н/о +10.3 +8.2 87 +9 +9 1025.9 1016.4
З 1
{3}
н/о н/о +9.5 +8.7 95 +9 +9 1025.9 1016.5
З 3
{3}
н/о н/о +9.5 +8.5 93 +7 +7 1026.7 1017.2 0.1
З 1
{3}
н/о н/о +9.5 +8.7 95 +9 +9 1026.4 1017.0
ЮЗ 2
{3}
н/о н/о +9.5 +8.8 95 +8 +8 1027.0 1017.5 0.1
З 2
{4}
65 км 6/5 300 м
[Cu Sc Ac As Ci fib]
+9.8 +8.7 93 +8 +8 1027.3 1017.8
З 2
{3}
9000 м слаб. ливневой дождь 10/9 300 м
[Cu Sc Ac As]
+10.0 +9.2 95 +8 +8 1027.6 1018.1
ЮЗ 2
{3}
40 км в посл. час ливневой дождь 9/8 100 м
[Cu Sc Ac As Ci fib]
+10.4 +9.3 93 +9 +9 1027.6 1018.2 +9.3 +12.2 0.9 2.6
З 2
{7}
50 км в посл. час ливневой дождь 8/5 300 м
[Cu Sc Ac trans Ci fib]
+13.5 +8.6 72 +13 +13 1027.7 1018.4
З 4
{7}
35 км слаб. ливневой дождь 9/8 100 м
[Cu Sc Ac As Ci fib]
+10.6 +8.7 88 +8 +8 1027.9 1018.5 0.2
СЗ 3
{6}
50 км осадки на расстоянии {ливн. дождь} 9/6 300 м
[Cu Sc Ac trans Ci fib]
+12.5 +8.6 77 +11 +12 1027.7 1018.3
З 5
{7}
45 км осадки на расстоянии 9/6 300 м
[Cu Sc Ac trans Ci fib]
+13.2 +9.3 77 +11 +12 1027.9 1018.6
З 5
{8}
50 км осадки на расстоянии 9/6 300 м
[Cu Sc Ac trans Ci fib]
+14.8 +9.2 69 +13 +14 1028.0 1018.7
З 5
{8}
50 км осадки на расстоянии {ливн. дождь} 9/6 600 м
[Cu Sc Ac trans Ci fib]
+14.6 +8.3 66 +13 +14 1028.1 1018.8 0.2
С 3
{6}
55 км осадки на расстоянии 9/8 300 м
[Cu Sc Ac trans]
+14.6 +10.1 74 +14 +14 1028.4 1019.1
СВ 3
{8}
50 км осадки на расстоянии 9/6 600 м
[Cu Sc Ac trans Ci fib]
+13.2 +10.2 82 +12 +13 1028.3 1019.0
С 2
{6}
50 км осадки на расстоянии 9/9 600 м
[Cu Sc Ac trans]
+13.4 +9.6 78 +13 +13 1028.6 1019.2
С 4
{6}
45 км осадки на расстоянии 9/9 300 м
[Cu Sc Ac trans]
+12.7 +10.0 84 +11 +11 1028.6 1019.2
СВ 3
{7}
55 км осадки на расстоянии 9/8 300 м
[Cu Sc Ac As Cc]
+12.0 +9.6 85 +10 +10 1028.8 1019.4
ЮВ 1
{5}
70 км 9/8 300 м
[Cu Sc Ac As]
+12.2 +9.4 83 +12 +12 1028.6 1019.2 +10.4 +15.1 0.2
СВ 3
{4}
70 км 9/3 600 м
[Cu Sc Ac trans Cs]
+11.1 +8.9 86 +9 +9 1028.7 1019.3
штиль 0
{2}
70 км 9/6 300 м
[Cu Sc Ac trans]
+11.6 +9.3 86 +11 +11 1028.5 1019.1
штиль 0
{5}
70 км 9/1 300 м
[St Ac trans Cs]
+9.9 +8.9 93 +9 +9 1028.7 1019.2
штиль 0
{2}
н/о н/о +8.2 +7.8 97 +7 +7 1028.6 1019.1
штиль 0
{1}
н/о н/о +6.9 +6.5 97 +6 +6 1028.6 1019.1
штиль 0
{1}
н/о н/о +5.5 +5.0 97 +4 +4 1028.5 1018.9
штиль 0
{1}
н/о н/о +6.4 +6.2 99 +5 +5 1028.1 1018.6
штиль 0
{1}
н/о н/о +6.2 +6.1 99 +5 +5 1028.2 1018.6
штиль 0 н/о н/о +6.8 +6.6 99 +6 +6 1027.9 1018.4
ЮЗ 1
{1}
>70 км туман на расстоянии 9/3 <50 м
[St Ac trans]
+7.3 +7.1 99 +6 +6 1027.6 1018.0
штиль 0
{1}
>70 км туман на расстоянии 9/1 <50 м
[St Ac trans Cs]
+8.1 +7.5 96 +7 +8 1027.3 1017.8
В 1
{2}
>70 км 8/1 50 м
[St Ac trans Cs]
+9.9 +7.8 87 +9 +11 1027.1 1017.6 +5.3 +12.2 0.2
В 2
{4}
>70 км 6/0
[Ac trans Ci fib]
+13.8 +9.0 73 +13 +17 1026.1 1016.8
ЮВ 1
{3}
>70 км 8/0
[Ac trans Ci fib]
+10.9 +8.0 82 +11 +13 1026.5 1017.1
В 2
{4}
>70 км 4/0
[Ac trans Ci fib]
+15.9 +9.0 64 +16 +21 1025.7 1016.5
С 2
{4}
>70 км 4/1 1000 м
[Cu hum Ac trans Ci fib]
+17.4 +8.0 54 +18 +23 1025.4 1016.2
В 1
{3}
>70 км 6/1 1000 м
[Cu hum Ac trans Ci sp]
+18.1 +7.4 50 +19 +25 1025.0 1015.8
Ю 1
{2}
>70 км 8/1 1500 м
[Cu hum Ac trans Ci sp]
+19.0 +8.1 49 +21 +25 комфорт 1024.6 1015.4
С 3
{4}
>70 км 9/0
[Ac trans Ci sp]
+17.8 +10.0 60 +18 +20 1024.0 1014.8
С 2
{4}
>70 км 9/1 1500 м
[Cu hum Ac trans Ci sp]
+18.8 +8.0 49 +20 +23 1024.2 1015.1
С 3
{4}
>70 км 9/0
[Ac trans Ci sp]
+17.5 +10.1 62 +18 +19 1023.7 1014.5

{6}
>70 км 9/0
[Ac trans Ci sp]
+17.6 +10.7 64 1023.6 1014.4

{4}
>70 км 9/0
[Ac trans Cs]
+17.2 +10.8 66 1023.4 1014.2
С 2
{4}
н/о н/о +15.8 +10.4 70 +16 +16 1023.2 1014.0 +9.8 +20.0
штиль 0
{3}
>70 км 9/0
[Ac trans Cs]
+11.8 +10.7 93 +11 +11 1023.1 1013.8
штиль 0
{3}
>70 км 9/0
[Ac trans Cs]
+13.8 +10.6 81 +13 +13 1023.0 1013.8
штиль 0
{2}
>70 км 9/0
[Ac trans Cs]
+10.5 +9.9 96 +10 +10 1023.1 1013.7
штиль 0 н/о н/о +9.2 +8.8 97 +8 +8 1023.1 1013.7
штиль 0 н/о н/о +7.7 +7.2 97 +7 +7 1023.1 1013.7
штиль 0 н/о н/о +7.3 +6.7 96 +6 +6 1023.0 1013.5
штиль 0 н/о н/о +6.1 +5.7 97 +5 +5 1022.9 1013.3
штиль 0 н/о н/о +7.0 +6.7 98 +6 +6 1023.0 1013.5
штиль 0 н/о н/о +6.8 +6.5 98 +6 +6 1022.7 1013.2
штиль 0 2500 м туман местами 9/5 <50 м
[Cu Sc Ac cast Cc]
+8.2 +7.8 97 +7 +7 1022.7 1013.3
штиль 0 65 км туман местами 6/4 <50 м
[Cu Sc Ac cast Ci sp]
+9.2 +8.5 95 +8 +9 1022.7 1013.2
штиль 0
{2}
70 км туман на расстоянии 8/1 <50 м
[Cu Sc Ac cast Cc]
+11.8 +9.6 86 +11 +13 1022.4 1013.0 +6.0 +15.8
штиль 0
{2}
>70 км 9/4 1000 м
[Cu Sc Ac cast Cc]
+13.5 +10.4 82 +13 +15 1022.2 1012.9
В 1
{2}
н/о н/о +11.4 +9.7 89 +11 +11 1022.4 1013.0
Местоположение метеостанции Бардуфосс (Норвегия): широта 69.06 долгота 18.54 высота над уровнем моря 76 м.
В архиве по умолчанию представлена погода в Бардуфоссе за последнюю неделю. Архивные данные за месяц целиком и за предыдущие месяцы, начиная с января 2011 года, Вы можете получить, выбрав интересующий диапазон дат из раскрывающегося списка и нажав кнопку "Найти!".
*Определитесь, кто Вы:
Внимание! Время в таблицах - всемирное. Для получения местного времени необходимо прибавить поправку, которая равна 1 ч.
Смотрите также архив погоды в соседних городах и на ближайших метеорологических станциях:
Партнеры нашего сайта:      
Пояснения к столбцам:
  • Ветер - указаны скорость ветра в м/с - средняя за 10 мин, порывы в срок и между сроками (в фигурных скобках) и направление, откуда дует ветер: С - северный,
  • СВ - северо-восточный, В - восточный, ЮВ - юго-восточный, Ю - южный, ЮЗ - юго-западный, З - западный, СЗ - северо-западный.
  • Видимость - горизонтальная дальность видимости в метрах или километрах. При видимости от 1 до 10 км при отсутствии осадков обычно наблюдается дымка, при ухудшении видимости до 1 км и менее - туман. В сухую погоду видимость может ухудшаться дымом, пылью или мглою.
  • Явления - указаны атмосферные явления, наблюдавшиеся в срок или в последний час перед сроком; фигурными скобками обозначены явления, наблюдавшиеся между сроками (за 1-3 часа до срока); квадратными скобками обозначены град или гололедные отложения с указанием их диаметра в мм.
  • Облачность - указаны через наклонную черту общая и нижняя облачность в баллах и высота нижней границы облаков в метрах; квадратными скобками обозначены формы облаков: Ci - перистые, Cs - перисто-слоистые, Cc - перисто-кучевые, Ac - высококучевые, As - высокослоистые, Sc - слоисто-кучевые, Ns - слоисто-дождевые, Cu - кучевые, Cb - кучево-дождевые. Подробнее классификацию облаков см. в Атласе облаков (PDF).
  • T - Температура воздуха - температура, измеренная на высоте 2 м над землей.
  • Td - Температура точки росы - температура, при понижении до которой содержащийся в воздухе водяной пар достигнет насыщения.
  • f - Относительная влажность воздуха - влажноcть воздуха, измеренная на высоте 2 м над землей.
  • Te - Эффективная температура - температура, которую ощущает одетый по сезону человек в тени. Характеристика душности погоды. При расчете учитывается влияние влажности воздуха и скорости ветра на теплоощущения человека.
  • Tes - Эффективная температура на солнце - температура, которую ощущает человек, с поправкой на солнечный нагрев. Характеристика знойности погоды. Зависит от высоты солнца над горизонтом, облачности и скорости ветра. Ночью, в пасмурную погоду, а также при ветре 12 м/с и более поправка равна нулю.
  • P - Атмосферное давление - приведенное к уровню моря атмосферное давление.
  • Po - Атмосферное давление - измеренное на уровне метеостанции атмосферное давление.
  • Tmin - Минимальная температура - минимум температуры воздуха на высоте 2 м над землей.
  • Tmax - Максимальная температура - максимум температуры воздуха на высоте 2 м над землей.
  • R - Количество осадков - Количество выпавших осадков за период времени, мм. При наведении курсора мыши на число - период времени, за который выпало указанное количество осадков.
  • R24 - Количество осадков - Количество выпавших осадков за 24 часа, мм.
  • S - Снежный покров - Высота снежного покрова, см. При наведении курсора мыши на число - состояние снежного покрова и степень покрытия местности в баллах.